When you browse on this site, cookies collect data to enhance your experience and personalize the content and advertising you see.
Visit our Privacy Policy to learn more. By continuing to use the site, you agree to this use of cookies and data.
  • In Hungary
  • List of Countries
  • For 7 days
  • Water Temperature
  • Weather Map
  • News
  • Weather Widgets
  • user-avatar
    Login

    Hourly Weather Mysen

    Today, 21 August, Wednesday

    Time Temperature Precipitation Wind Pressure Humidity
    00:00 +12°C° 0 mm 3 mps 752 mmHg 88%
    01:00 +12°C° 0 mm 3 mps 752 mmHg 88%
    02:00 +11°C° 0 mm 3 mps 752 mmHg 90%
    03:00 +12°C° 0 mm 2 mps 752 mmHg 92%
    04:00 +12°C° 0 mm 2 mps 752 mmHg 93%
    05:00 +12°C° 0 mm 2 mps 752 mmHg 88%
    06:00 +13°C° 0 mm 2 mps 752 mmHg 83%
    07:00 +14°C° 0 mm 2 mps 752 mmHg 77%
    08:00 +16°C° 0 mm 2 mps 753 mmHg 70%
    09:00 +17°C° 0 mm 2 mps 753 mmHg 63%
    10:00 +18°C° 0 mm 2 mps 753 mmHg 55%
    11:00 +19°C° 0 mm 2 mps 753 mmHg 52%
    12:00 +20°C° 0 mm 2 mps 753 mmHg 48%
    13:00 +21°C° 0 mm 2 mps 753 mmHg 44%
    14:00 +21°C° 0 mm 2 mps 753 mmHg 46%
    15:00 +20°C° 0 mm 3 mps 753 mmHg 47%
    16:00 +20°C° 0 mm 3 mps 753 mmHg 49%
    17:00 +19°C° 0 mm 3 mps 753 mmHg 56%
    18:00 +17°C° 0 mm 3 mps 753 mmHg 64%
    19:00 +16°C° 0 mm 2 mps 753 mmHg 72%
    20:00 +15°C° 0 mm 2 mps 754 mmHg 78%
    21:00 +14°C° 0 mm 2 mps 754 mmHg 84%
    22:00 +13°C° 0 mm 2 mps 754 mmHg 91%
    23:00 +13°C° 0 mm 2 mps 755 mmHg 88%

    Tomorrow, 22 August, Thursday

    Time Temperature Precipitation Wind Pressure Humidity
    00:00 +12°C° 0 mm 3 mps 755 mmHg 85%
    01:00 +12°C° 0 mm 3 mps 755 mmHg 82%
    02:00 +12°C° 0 mm 3 mps 755 mmHg 83%
    03:00 +12°C° 0 mm 3 mps 755 mmHg 84%
    04:00 +12°C° 0 mm 4 mps 755 mmHg 84%
    05:00 +12°C° 0 mm 4 mps 755 mmHg 85%
    06:00 +13°C° 0 mm 4 mps 755 mmHg 85%
    07:00 +14°C° 0 mm 4 mps 755 mmHg 85%
    08:00 +14°C° 0.4 mm 4 mps 755 mmHg 85%
    09:00 +15°C° 0.4 mm 5 mps 754 mmHg 85%
    10:00 +15°C° 0.4 mm 5 mps 754 mmHg 84%
    11:00 +14°C° 1.2 mm 5 mps 754 mmHg 87%
    12:00 +14°C° 1.2 mm 5 mps 754 mmHg 90%
    13:00 +13°C° 1.2 mm 5 mps 753 mmHg 93%
    14:00 +13°C° 1.4 mm 5 mps 753 mmHg 93%
    15:00 +14°C° 1.4 mm 5 mps 753 mmHg 92%
    16:00 +14°C° 1.4 mm 5 mps 753 mmHg 92%
    17:00 +14°C° 0.1 mm 5 mps 753 mmHg 91%
    18:00 +14°C° 0.1 mm 5 mps 752 mmHg 91%
    19:00 +14°C° 0.1 mm 4 mps 752 mmHg 90%
    20:00 +13°C° 0 mm 4 mps 752 mmHg 91%
    21:00 +13°C° 0 mm 4 mps 753 mmHg 92%
    22:00 +13°C° 0 mm 4 mps 753 mmHg 93%
    23:00 +13°C° 0 mm 4 mps 753 mmHg 94%

    Day after tomorrow, 23 August, Friday

    Time Temperature Precipitation Wind Pressure Humidity
    00:00 +12°C° 0 mm 4 mps 753 mmHg 95%
    01:00 +12°C° 0 mm 4 mps 753 mmHg 95%
    02:00 +12°C° 0 mm 4 mps 753 mmHg 92%
    03:00 +12°C° 0 mm 4 mps 753 mmHg 89%
    04:00 +12°C° 0 mm 5 mps 753 mmHg 86%
    05:00 +12°C° 0.1 mm 4 mps 752 mmHg 86%
    06:00 +12°C° 0.1 mm 4 mps 752 mmHg 87%
    07:00 +12°C° 0.1 mm 4 mps 752 mmHg 87%
    08:00 +13°C° 0.3 mm 5 mps 752 mmHg 90%
    09:00 +14°C° 0.3 mm 5 mps 752 mmHg 92%
    10:00 +15°C° 0.3 mm 5 mps 752 mmHg 95%
    11:00 +15°C° 0.1 mm 6 mps 752 mmHg 92%
    12:00 +16°C° 0.1 mm 6 mps 752 mmHg 89%
    13:00 +17°C° 0.1 mm 6 mps 752 mmHg 87%
    14:00 +17°C° 0.3 mm 6 mps 752 mmHg 84%
    15:00 +19°C° 0.3 mm 6 mps 752 mmHg 82%
    16:00 +19°C° 0.3 mm 6 mps 752 mmHg 80%
    17:00 +19°C° 0.1 mm 6 mps 752 mmHg 82%
    18:00 +17°C° 0.1 mm 5 mps 752 mmHg 83%
    19:00 +16°C° 0.1 mm 5 mps 752 mmHg 85%
    20:00 +16°C° 0 mm 5 mps 752 mmHg 87%
    21:00 +15°C° 0 mm 4 mps 752 mmHg 89%
    22:00 +15°C° 0 mm 4 mps 753 mmHg 92%
    23:00 +14°C° 0 mm 4 mps 753 mmHg 92%

    24 August, Saturday

    Time Temperature Precipitation Wind Pressure Humidity
    00:00 +14°C° 0 mm 3 mps 753 mmHg 92%
    01:00 +14°C° 0 mm 3 mps 753 mmHg 93%
    02:00 +13°C° 0 mm 3 mps 753 mmHg 94%
    03:00 +14°C° 0 mm 2 mps 754 mmHg 95%
    04:00 +14°C° 0 mm 2 mps 754 mmHg 96%
    05:00 +14°C° 0 mm 1 mps 754 mmHg 93%
    06:00 +15°C° 0 mm 1 mps 755 mmHg 90%
    07:00 +15°C° 0 mm 1 mps 755 mmHg 86%
    08:00 +18°C° 0 mm 1 mps 755 mmHg 73%
    09:00 +20°C° 0 mm 1 mps 756 mmHg 59%
    10:00 +21°C° 0 mm 1 mps 756 mmHg 46%
    11:00 +22°C° 0 mm 1 mps 756 mmHg 42%
    12:00 +24°C° 0 mm 1 mps 756 mmHg 39%
    13:00 +23°C° 0 mm 0 mps 756 mmHg 36%
    14:00 +25°C° 0 mm 1 mps 756 mmHg 38%
    15:00 +24°C° 0 mm 1 mps 756 mmHg 40%
    16:00 +24°C° 0 mm 1 mps 756 mmHg 42%
    17:00 +22°C° 0 mm 1 mps 757 mmHg 53%
    18:00 +20°C° 0 mm 1 mps 757 mmHg 63%
    19:00 +18°C° 0 mm 1 mps 757 mmHg 74%
    20:00 +15°C° 0 mm 0 mps 757 mmHg 78%
    21:00 +14°C° 0 mm 0 mps 757 mmHg 82%
    22:00 +13°C° 0 mm 0 mps 758 mmHg 86%
    23:00 +13°C° 0 mm 0 mps 758 mmHg 88%

    25 August, Sunday

    Time Temperature Precipitation Wind Pressure Humidity
    00:00 +12°C° 0 mm 0 mps 758 mmHg 90%
    01:00 +12°C° 0 mm 0 mps 758 mmHg 92%
    02:00 +12°C° 0 mm 0 mps 758 mmHg 94%
    03:00 +12°C° 0 mm 0 mps 758 mmHg 95%
    04:00 +12°C° 0 mm 0 mps 758 mmHg 96%
    05:00 +13°C° 0 mm 1 mps 758 mmHg 94%
    06:00 +14°C° 0 mm 1 mps 758 mmHg 92%
    07:00 +15°C° 0 mm 1 mps 758 mmHg 90%
    08:00 +18°C° 0 mm 1 mps 758 mmHg 82%
    09:00 +19°C° 0 mm 1 mps 758 mmHg 75%
    10:00 +21°C° 0 mm 1 mps 758 mmHg 67%
    11:00 +21°C° 0 mm 2 mps 758 mmHg 63%
    12:00 +23°C° 0 mm 2 mps 757 mmHg 59%
    13:00 +24°C° 0 mm 2 mps 757 mmHg 55%
    14:00 +24°C° 0 mm 2 mps 757 mmHg 56%
    15:00 +24°C° 0 mm 2 mps 757 mmHg 56%
    16:00 +24°C° 0 mm 2 mps 756 mmHg 56%
    17:00 +22°C° 0 mm 1 mps 756 mmHg 63%
    18:00 +21°C° 0 mm 1 mps 756 mmHg 70%
    19:00 +19°C° 0 mm 1 mps 756 mmHg 77%
    20:00 +18°C° 0 mm 1 mps 756 mmHg 80%
    21:00 +16°C° 0 mm 1 mps 756 mmHg 83%
    22:00 +15°C° 0 mm 1 mps 756 mmHg 86%
    23:00 +15°C° 0 mm 1 mps 756 mmHg 88%

    26 August, Monday

    Time Temperature Precipitation Wind Pressure Humidity
    00:00 +15°C° 0 mm 1 mps 755 mmHg 90%
    01:00 +15°C° 0 mm 1 mps 755 mmHg 92%
    02:00 +14°C° 0 mm 1 mps 755 mmHg 93%
    03:00 +14°C° 0 mm 1 mps 755 mmHg 94%
    04:00 +13°C° 0 mm 1 mps 754 mmHg 96%
    05:00 +14°C° 0 mm 1 mps 754 mmHg 92%
    06:00 +15°C° 0 mm 1 mps 754 mmHg 88%
    07:00 +16°C° 0 mm 1 mps 754 mmHg 85%
    08:00 +18°C° 0 mm 2 mps 754 mmHg 77%
    09:00 +20°C° 0 mm 2 mps 754 mmHg 70%
    10:00 +21°C° 0 mm 2 mps 753 mmHg 62%
    11:00 +22°C° 0 mm 3 mps 753 mmHg 58%
    12:00 +24°C° 0 mm 3 mps 753 mmHg 55%
    13:00 +24°C° 0 mm 3 mps 752 mmHg 51%
    14:00 +23°C° 0 mm 4 mps 752 mmHg 53%
    15:00 +22°C° 0 mm 4 mps 752 mmHg 56%
    16:00 +21°C° 0 mm 4 mps 751 mmHg 58%
    17:00 +20°C° 0 mm 4 mps 751 mmHg 66%
    18:00 +19°C° 0 mm 3 mps 751 mmHg 75%
    19:00 +17°C° 0 mm 3 mps 750 mmHg 83%
    20:00 +17°C° 0 mm 3 mps 750 mmHg 86%
    21:00 +17°C° 0 mm 3 mps 750 mmHg 89%
    22:00 +17°C° 0 mm 3 mps 750 mmHg 93%
    23:00 +17°C° 0 mm 4 mps 750 mmHg 92%
    Show more